Location: Elbart
(49.6135°N, 11.9134°E)
Time: 12:57:57
(UTC+00:00)

SL-16 R/B - Pass Details

Date: 09 April 2020
Orbit: 985 x 1007 km, 99.5° (Epoch: 28 May)

Event Time Altitude Azimuth Distance (km) Brightness Sun altitude
Exits shadow 23:48:39 35° 92° (E) 1,558 3.5 -31.8°
Maximum altitude 23:50:06 40° 62° (ENE) 1,438 3.5 -31.8°
Drops below altitude 10° 23:55:50 10° 355° (N) 2,775 5.7 -31.6°
Sets 23:58:26 0° 349° (N) 3,724 6.5 -31.5°
